period_start,C,m1,H,J0,J1,J2,J3,J4,J5,JA,JB,JC,JD,JJ,JK,JN,#
2017-09-13 00:03:23,-0.00,0.26,0.00,23.81,27.10,29.64,14.00,41.36,1031.61,2033.99,3443.00,3017.23,3463.00,599.89,603.05,12.11,0000 0000 0000 0000 000000
2017-09-13 00:08:24,0.00,0.26,0.00,23.84,27.10,29.64,13.93,41.42,1031.42,2033.99,3443.00,3017.08,3462.99,600.19,603.21,12.16,0000 0000 0000 0000 000000
2017-09-13 00:13:25,0.00,0.26,0.00,23.81,27.10,29.64,14.01,41.42,1031.50,2033.99,3443.00,3017.07,3462.99,600.28,603.42,12.21,0000 0000 0000 0000 000000
2017-09-13 00:18:27,0.00,0.26,0.00,23.78,27.10,29.63,14.01,41.48,1031.44,2033.99,3443.00,3017.04,3462.98,599.94,602.96,12.26,0000 0000 0000 0000 000000
2017-09-13 00:23:28,0.00,0.26,0.00,23.80,27.10,29.64,13.95,41.37,1031.42,2033.99,3443.00,3017.04,3462.98,599.49,602.70,12.31,0000 0000 0000 0000 000000
2017-09-13 00:28:29,0.00,0.26,0.00,23.80,27.09,29.64,13.95,41.41,1031.38,2033.99,3443.00,3017.02,3462.98,599.83,602.82,12.36,0000 0000 0000 0000 000000
2017-09-13 00:33:30,0.00,0.26,0.00,23.83,27.09,29.63,14.03,41.35,1031.32,2033.99,3442.97,3017.00,3462.94,599.95,602.91,12.41,0000 0000 0000 0000 000000
2017-09-13 00:38:32,0.00,0.26,0.00,23.82,27.08,29.63,14.06,41.52,1031.33,2033.99,3442.94,3017.00,3462.88,600.38,603.35,12.46,0000 0000 0000 0000 000000
2017-09-13 00:43:33,0.01,0.26,0.00,23.81,27.08,29.62,13.99,41.45,1031.36,2033.99,3442.69,3017.00,3462.57,600.14,603.26,12.51,0000 0000 0000 0000 000000
2017-09-13 00:48:34,0.02,0.26,0.00,23.80,27.08,29.64,13.98,41.37,1031.39,2033.99,3442.14,3016.99,3462.11,600.04,603.06,12.56,0000 0000 0000 0000 000000
2017-09-13 00:53:35,0.00,0.26,0.00,23.82,27.07,29.63,13.92,41.45,1031.41,2033.99,3442.02,3016.98,3462.02,599.98,603.00,12.61,0000 0000 0000 0000 000000
2017-09-13 00:58:36,0.00,0.26,0.00,23.82,27.07,29.63,14.02,41.44,1031.39,2033.99,3442.00,3016.94,3462.00,600.34,603.15,12.66,0000 0000 0000 0000 000000
2017-09-13 01:03:38,0.00,0.26,0.00,23.79,27.07,29.62,14.00,41.42,1031.31,2033.99,3442.00,3016.92,3462.00,600.38,603.40,12.71,0000 0000 0000 0000 000000
2017-09-13 01:08:39,0.00,0.26,0.00,23.81,27.07,29.62,13.96,41.41,1031.29,2033.99,3441.99,3016.89,3462.00,600.23,603.14,12.76,0000 0000 0000 0000 000000
2017-09-13 01:13:40,0.01,0.26,0.00,23.85,27.07,29.63,14.00,41.31,1031.28,2033.99,3441.98,3016.60,3462.00,599.81,602.68,12.81,0000 0000 0000 0000 000000
2017-09-13 01:18:42,0.01,0.26,0.00,23.81,27.07,29.62,13.92,41.42,1031.28,2033.99,3441.85,3016.17,3461.97,600.23,603.24,12.86,0000 0000 0000 0000 000000
2017-09-13 01:23:43,0.02,0.26,0.00,23.81,27.07,29.62,13.97,41.50,1031.27,2034.00,3441.20,3016.04,3461.76,600.10,603.09,12.91,0000 0000 0000 0000 000000
2017-09-13 01:28:44,0.00,0.26,0.00,23.82,27.07,29.61,14.06,41.38,1031.27,2034.00,3441.03,3016.00,3461.39,600.48,603.38,12.96,0000 0000 0000 0000 000000
2017-09-13 01:33:45,0.00,0.26,0.00,23.80,27.07,29.62,14.06,41.33,1031.27,2034.00,3441.00,3016.00,3461.13,600.22,603.33,13.01,0000 0000 0000 0000 000000
2017-09-13 01:38:46,0.00,0.26,0.00,23.78,27.07,29.62,13.99,41.46,1031.27,2034.00,3441.00,3016.00,3461.05,599.65,602.69,13.06,0000 0000 0000 0000 000000
2017-09-13 01:43:48,0.00,0.26,0.00,23.79,27.07,29.62,13.95,41.38,1031.27,2034.00,3440.99,3015.99,3461.00,599.99,603.07,13.11,0000 0000 0000 0000 000000
2017-09-13 01:48:49,0.00,0.26,0.00,23.81,27.07,29.63,14.03,41.33,1031.27,2034.00,3440.78,3015.96,3460.99,600.15,603.16,13.16,0000 0000 0000 0000 000000
2017-09-13 01:53:51,0.01,0.27,0.00,23.81,27.07,29.62,14.03,41.48,1031.27,2034.00,3440.19,3015.87,3460.95,599.96,602.80,13.21,0000 0000 0000 0000 000000
2017-09-13 01:58:52,0.02,0.27,0.00,23.80,27.07,29.62,13.97,41.30,1031.27,2034.00,3440.01,3015.35,3460.80,600.27,603.27,13.26,0000 0000 0000 0000 000000
2017-09-13 02:03:53,0.01,0.27,0.00,23.80,27.07,29.62,13.95,41.39,1031.27,2034.00,3440.00,3015.10,3460.37,600.16,603.21,13.31,0000 0000 0000 0000 000000
2017-09-13 02:08:55,0.00,0.27,0.00,23.85,27.07,29.62,14.05,41.48,1031.27,2034.00,3439.88,3015.00,3460.01,600.29,603.20,13.36,0000 0000 0000 0000 000000
2017-09-13 02:13:56,0.01,0.27,0.00,23.83,27.07,29.62,13.96,41.34,1031.27,2034.00,3439.19,3015.00,3459.99,599.94,602.79,13.41,0000 0000 0000 0000 000000
2017-09-13 02:18:57,0.00,0.27,0.00,23.82,27.07,29.61,13.96,41.30,1031.27,2034.00,3439.00,3014.90,3459.86,599.99,602.95,13.46,0000 0000 0000 0000 000000
2017-09-13 02:23:59,0.03,0.27,0.00,23.82,27.08,29.61,13.94,41.40,1031.27,2034.00,3438.91,3014.31,3459.14,599.97,602.92,13.51,0000 0000 0000 0000 000000
2017-09-13 02:29:00,0.01,0.27,0.00,23.78,27.08,29.62,13.93,41.31,1031.27,2034.00,3438.16,3014.02,3459.00,599.90,602.86,13.56,0000 0000 0000 0000 000000
2017-09-13 02:34:01,0.00,0.27,0.00,23.80,27.09,29.62,14.02,41.36,1031.26,2034.00,3437.99,3013.99,3458.93,599.83,602.75,13.61,0000 0000 0000 0000 000000
2017-09-13 02:39:02,0.02,0.27,0.00,23.84,27.10,29.63,14.00,41.38,1031.26,2034.00,3437.78,3013.95,3458.46,600.25,603.17,13.66,0000 0000 0000 0000 000000
2017-09-13 02:44:03,0.01,0.27,0.00,23.85,27.10,29.63,13.97,41.40,1031.26,2034.00,3437.16,3013.81,3458.04,599.94,602.82,13.71,0000 0000 0000 0000 000000
2017-09-13 02:49:05,0.01,0.27,0.00,23.85,27.10,29.62,14.08,41.51,1031.26,2034.00,3437.01,3013.29,3458.01,600.19,603.10,13.77,0000 0000 0000 0000 000000
2017-09-13 02:54:06,0.00,0.27,0.00,23.84,27.10,29.62,13.91,41.55,1031.26,2033.99,3436.99,3013.04,3457.99,599.77,602.82,13.82,0000 0000 0000 0000 000000
2017-09-13 02:59:07,0.00,0.27,0.00,23.84,27.10,29.62,13.95,41.48,1031.26,2034.00,3436.97,3013.01,3457.96,599.46,602.38,13.87,0000 0000 0000 0000 000000
2017-09-13 03:04:09,0.01,0.27,0.00,23.84,27.10,29.62,13.98,41.35,1031.26,2034.00,3436.55,3013.00,3457.66,599.78,602.75,13.92,0000 0000 0000 0000 000000
2017-09-13 03:09:10,0.01,0.28,0.00,23.84,27.10,29.62,13.95,41.46,1031.26,2034.00,3436.02,3012.99,3457.08,599.84,602.70,13.97,0000 0000 0000 0000 000000
2017-09-13 03:14:11,0.00,0.28,0.00,23.84,27.10,29.63,13.95,41.42,1031.25,2034.00,3436.00,3012.90,3457.00,600.18,603.14,14.02,0000 0000 0000 0000 000000
2017-09-13 03:19:12,0.01,0.28,0.00,23.83,27.10,29.63,13.99,41.43,1031.26,2034.00,3435.97,3012.51,3456.99,600.18,603.10,14.07,0000 0000 0000 0000 000000
2017-09-13 03:24:13,0.01,0.28,0.00,23.86,27.10,29.63,13.89,41.34,1031.26,2034.00,3435.43,3012.06,3456.97,599.65,602.46,14.12,0000 0000 0000 0000 000000
2017-09-13 03:29:15,0.01,0.28,0.00,23.87,27.10,29.63,13.91,41.27,1031.25,2034.00,3435.09,3012.01,3456.71,599.86,602.64,14.17,0000 0000 0000 0000 000000
2017-09-13 03:34:16,0.00,0.28,0.00,23.82,27.11,29.62,13.99,41.27,1031.18,2034.00,3435.00,3012.00,3456.12,600.05,602.88,14.22,0000 0000 0000 0000 000000
2017-09-13 03:39:17,0.00,0.28,0.00,23.85,27.12,29.64,13.97,41.33,1031.02,2034.00,3434.89,3011.95,3456.00,600.05,602.75,14.27,0000 0000 0000 0000 000000
2017-09-13 03:44:18,0.02,0.28,0.00,23.86,27.12,29.63,14.03,41.38,1030.94,2034.00,3434.22,3011.65,3455.99,600.24,602.93,14.32,0000 0000 0000 0000 000000
2017-09-13 03:49:20,0.02,0.28,0.00,23.88,27.12,29.63,13.94,41.39,1031.01,2034.00,3434.01,3011.13,3455.87,599.94,602.61,14.37,0000 0000 0000 0000 000000
2017-09-13 03:54:21,0.01,0.28,0.00,23.88,27.12,29.63,14.02,41.53,1031.01,2034.00,3434.00,3011.01,3455.23,600.23,602.91,14.42,0000 0000 0000 0000 000000
2017-09-13 03:59:22,0.00,0.28,0.00,23.85,27.12,29.63,13.98,41.32,1030.86,2034.00,3433.93,3011.00,3455.05,600.18,602.85,14.47,0000 0000 0000 0000 000000
2017-09-13 04:04:23,0.01,0.28,0.00,23.85,27.12,29.63,13.99,41.44,1030.83,2034.00,3433.21,3010.99,3455.00,599.86,602.62,14.52,0000 0000 0000 0000 000000
2017-09-13 04:09:24,0.00,0.28,0.00,23.85,27.13,29.63,13.99,41.59,1030.86,2034.00,3433.02,3010.94,3454.99,600.28,602.92,14.57,0000 0000 0000 0000 000000
2017-09-13 04:14:26,0.01,0.28,0.00,23.85,27.14,29.64,13.99,41.42,1030.85,2033.99,3433.00,3010.64,3454.89,600.20,602.87,14.62,0000 0000 0000 0000 000000
2017-09-13 04:19:27,0.02,0.28,0.00,23.87,27.15,29.63,13.95,41.46,1030.88,2033.99,3432.86,3010.12,3454.41,599.93,602.68,14.67,0000 0000 0000 0000 000000
2017-09-13 04:24:29,0.01,0.28,0.00,23.86,27.15,29.64,13.88,41.40,1030.85,2033.99,3432.50,3010.03,3454.04,599.90,602.59,14.72,0000 0000 0000 0000 000000
2017-09-13 04:29:30,0.00,0.28,0.00,23.85,27.15,29.64,13.94,41.48,1030.87,2033.99,3432.17,3010.01,3454.01,600.14,602.74,14.77,0000 0000 0000 0000 000000
2017-09-13 04:34:32,0.00,0.28,0.00,23.89,27.15,29.64,14.00,41.47,1030.89,2033.98,3432.06,3010.00,3454.00,599.64,602.26,14.82,0000 0000 0000 0000 000000
2017-09-13 04:39:33,-0.00,0.28,0.00,23.87,27.15,29.65,13.98,41.43,1030.93,2033.98,3432.00,3009.99,3454.00,599.59,602.31,14.87,0000 0000 0000 0000 000000
2017-09-13 04:44:35,0.00,0.28,0.00,23.86,27.15,29.64,14.00,41.41,1030.85,2033.97,3431.99,3009.95,3453.93,599.83,602.45,14.92,0000 0000 0000 0000 000000
2017-09-13 04:49:36,0.00,0.28,0.00,23.88,27.15,29.64,13.93,41.44,1030.81,2033.97,3431.95,3009.89,3453.92,599.88,602.46,14.97,0000 0000 0000 0000 000000
2017-09-13 04:54:37,0.01,0.29,0.00,23.88,27.15,29.65,14.03,41.42,1030.79,2033.99,3431.96,3009.76,3453.73,599.91,602.45,15.02,0000 0000 0000 0000 000000
2017-09-13 04:59:39,0.02,0.29,0.00,23.86,27.17,29.65,13.96,41.41,1030.79,2033.97,3431.52,3009.35,3453.33,599.94,602.54,15.07,0000 0000 0000 0000 000000
2017-09-13 05:04:40,0.01,0.29,0.00,23.86,27.17,29.65,14.00,41.38,1030.78,2033.99,3431.18,3009.17,3453.13,600.15,602.71,15.12,0000 0000 0000 0000 000000
2017-09-13 05:09:41,0.00,0.29,0.00,23.86,27.17,29.65,14.00,41.45,1030.78,2033.99,3431.04,3009.02,3453.04,600.13,602.79,15.17,0000 0000 0000 0000 000000
2017-09-13 05:14:42,0.00,0.29,0.00,23.89,27.17,29.66,14.00,41.35,1030.78,2033.99,3431.02,3009.01,3453.01,600.02,602.52,15.22,0000 0000 0000 0000 000000
2017-09-13 05:19:44,0.00,0.29,0.00,23.88,27.17,29.66,13.98,41.34,1030.78,2033.98,3431.01,3009.00,3453.00,600.03,602.59,15.27,0000 0000 0000 0000 000000
2017-09-13 05:24:45,0.00,0.29,0.00,23.89,27.17,29.66,13.97,41.36,1030.78,2033.98,3430.99,3009.00,3453.00,599.91,602.52,15.32,0000 0000 0000 0000 000000
2017-09-13 05:29:46,0.00,0.29,0.00,23.89,27.17,29.67,14.01,41.50,1030.78,2033.96,3430.99,3009.00,3452.99,600.13,602.65,15.37,0000 0000 0000 0000 000000
2017-09-13 05:34:47,-0.00,0.29,0.00,23.88,27.17,29.67,13.92,41.35,1030.78,2033.96,3430.95,3008.98,3452.96,599.93,602.47,15.42,0000 0000 0000 0000 000000
2017-09-13 05:39:48,0.03,0.29,0.00,23.88,27.18,29.67,13.93,41.38,1030.78,2033.97,3430.30,3008.84,3452.39,599.97,602.55,15.47,0000 0000 0000 0000 000000
2017-09-13 05:44:49,0.01,0.29,0.00,23.88,27.19,29.67,13.96,41.29,1030.78,2033.98,3430.00,3008.35,3452.11,599.94,602.58,15.52,0000 0000 0000 0000 000000
2017-09-13 05:49:51,0.00,0.29,0.00,23.91,27.19,29.67,14.00,41.29,1030.78,2033.98,3429.99,3008.24,3452.07,600.07,602.68,15.57,0000 0000 0000 0000 000000
2017-09-13 05:54:52,-0.00,0.29,0.00,23.89,27.20,29.68,13.95,41.38,1030.78,2033.99,3429.99,3008.20,3452.04,600.10,602.64,15.62,0000 0000 0000 0000 000000
2017-09-13 05:59:54,-0.00,0.29,0.00,23.89,27.20,29.67,13.92,41.33,1030.78,2033.97,3429.99,3008.30,3452.03,599.82,602.34,15.67,0000 0000 0000 0000 000000
2017-09-13 06:04:55,0.00,0.29,0.00,23.92,27.20,29.69,13.99,41.48,1030.78,2033.98,3429.99,3008.22,3452.04,600.22,602.76,15.72,0000 0000 0000 0000 000000
2017-09-13 06:09:57,0.00,0.29,0.00,23.96,27.20,29.68,13.94,41.39,1030.78,2033.97,3429.99,3008.11,3452.03,600.05,602.61,15.77,0000 0000 0000 0000 000000
2017-09-13 06:14:58,0.00,0.29,0.00,23.96,27.20,29.68,13.93,41.35,1030.78,2033.98,3429.99,3008.07,3452.02,600.17,602.59,15.82,0000 0000 0000 0000 000000
2017-09-13 06:19:59,0.00,0.29,0.00,23.93,27.20,29.68,13.99,41.51,1030.78,2033.98,3429.99,3008.05,3452.02,600.08,602.61,15.87,0000 0000 0000 0000 000000
2017-09-13 06:25:00,-0.00,0.29,0.00,23.92,27.21,29.69,13.98,41.43,1030.77,2033.98,3429.98,3008.03,3452.00,599.99,602.37,15.92,0000 0000 0000 0000 000000
2017-09-13 06:30:01,-0.00,0.29,0.00,23.93,27.21,29.70,13.95,41.47,1030.76,2033.99,3429.99,3008.07,3452.02,599.65,602.15,15.97,0000 0000 0000 0000 000000
2017-09-13 06:35:03,-0.00,0.29,0.00,23.95,27.22,29.69,13.92,41.38,1030.74,2033.99,3429.99,3008.04,3452.01,599.93,602.39,16.02,0000 0000 0000 0000 000000
2017-09-13 06:40:04,0.00,0.29,0.00,23.95,27.22,29.70,14.00,41.38,1030.69,2033.97,3429.99,3008.03,3452.01,600.50,602.92,16.08,0000 0000 0000 0000 000000
2017-09-13 06:45:05,0.00,0.29,0.00,23.95,27.22,29.71,13.98,41.42,1030.48,2033.97,3429.97,3008.02,3452.00,600.16,602.47,16.13,0000 0000 0000 0000 000000
2017-09-13 06:50:06,-0.00,0.29,0.00,23.96,27.22,29.70,13.97,41.37,1030.36,2033.97,3429.99,3008.02,3452.00,600.14,602.25,16.18,0000 0000 0000 0000 000000
2017-09-13 06:55:08,-0.00,0.29,0.00,23.98,27.22,29.70,13.93,41.42,1030.35,2033.94,3429.99,3008.00,3452.00,600.04,602.13,16.23,0000 0000 0000 0000 000000
2017-09-13 07:00:09,-0.02,0.29,0.00,23.98,27.22,29.71,13.99,41.42,1030.34,2033.83,3429.98,3008.01,3452.00,600.01,602.13,16.28,0000 0000 0000 0000 000000
2017-09-13 07:05:10,0.01,0.29,0.00,23.98,27.22,29.72,13.89,41.33,1030.35,2033.84,3429.98,3008.00,3452.00,599.93,601.97,16.33,0000 0000 0000 0000 000000
2017-09-13 07:10:11,0.00,0.29,0.00,23.98,27.22,29.72,13.95,41.39,1030.35,2033.76,3429.89,3008.00,3451.99,600.26,602.32,16.38,0000 0000 0000 0000 000000
2017-09-13 07:15:12,-0.02,0.29,0.00,24.01,27.22,29.73,13.92,41.41,1030.35,2033.72,3429.80,3008.00,3451.98,600.07,602.05,16.43,0000 0000 0000 0000 000000
2017-09-13 07:20:13,0.02,0.29,0.00,24.02,27.22,29.73,13.91,41.31,1030.38,2033.69,3429.87,3008.00,3451.99,600.02,602.09,16.48,0000 0000 0000 0000 000000
2017-09-13 07:25:15,0.01,0.29,0.00,24.01,27.24,29.73,13.93,41.43,1030.40,2033.88,3429.62,3008.00,3451.98,600.07,602.07,16.53,0000 0000 0000 0000 000000
2017-09-13 07:30:16,-0.01,0.29,0.00,24.01,27.25,29.73,13.99,41.35,1030.48,2033.71,3429.24,3008.00,3451.91,600.26,602.37,16.58,0000 0000 0000 0000 000000
2017-09-13 07:35:17,-0.02,0.29,0.00,24.00,27.25,29.74,13.91,41.27,1030.45,2033.36,3429.04,3007.98,3451.61,599.84,601.95,16.63,0000 0000 0000 0000 000000
2017-09-13 07:40:18,-0.01,0.29,0.00,24.00,27.25,29.74,13.93,41.27,1030.49,2033.26,3429.02,3007.97,3451.28,600.08,602.16,16.68,0000 0000 0000 0000 000000
2017-09-13 07:45:19,-0.00,0.29,0.00,24.02,27.25,29.75,13.96,41.44,1030.48,2033.15,3429.03,3007.97,3451.14,600.27,602.37,16.73,0000 0000 0000 0000 000000
2017-09-13 07:50:21,0.00,0.29,0.00,24.01,27.25,29.76,14.00,41.40,1030.37,2033.10,3429.01,3007.93,3451.09,600.17,602.14,16.78,0000 0000 0000 0000 000000
2017-09-13 07:55:22,-0.00,0.29,0.00,24.00,27.25,29.75,13.91,41.36,1030.32,2033.10,3429.03,3007.96,3451.12,599.70,601.74,16.83,0000 0000 0000 0000 000000
2017-09-13 08:00:23,-0.00,0.29,0.00,23.98,27.25,29.75,13.94,41.35,1030.32,2033.07,3429.02,3007.91,3451.08,600.01,602.04,16.88,0000 0000 0000 0000 000000
2017-09-13 08:05:24,-0.00,0.29,0.00,24.02,27.25,29.76,13.94,41.47,1030.33,2033.03,3429.03,3007.93,3451.06,599.79,601.74,16.93,0000 0000 0000 0000 000000
2017-09-13 08:10:26,-0.00,0.29,0.00,24.01,27.26,29.75,13.97,41.40,1030.32,2033.06,3429.01,3007.95,3451.06,600.18,602.10,16.98,0000 0000 0000 0000 000000
2017-09-13 08:15:27,-0.00,0.29,0.00,24.01,27.26,29.75,13.95,41.46,1030.37,2033.03,3429.06,3007.95,3451.09,600.25,602.29,17.03,0000 0000 0000 0000 000000
2017-09-13 08:20:28,-0.00,0.29,0.00,24.00,27.27,29.76,14.02,41.38,1030.53,2033.01,3429.12,3007.95,3451.07,600.29,602.42,17.08,0000 0000 0000 0000 000000
2017-09-13 08:25:29,0.00,0.29,0.00,24.00,27.27,29.77,13.90,41.26,1030.53,2033.00,3429.10,3007.97,3451.04,600.09,602.24,17.13,0000 0000 0000 0000 000000
2017-09-13 08:30:30,-0.00,0.29,0.00,24.03,27.27,29.77,13.95,41.38,1030.64,2033.00,3429.12,3007.95,3451.03,600.08,602.12,17.18,0000 0000 0000 0000 000000
2017-09-13 08:35:32,0.00,0.29,0.00,24.02,27.27,29.77,13.95,41.33,1030.65,2033.00,3429.12,3007.97,3451.03,600.15,602.34,17.23,0000 0000 0000 0000 000000
2017-09-13 08:40:33,0.01,0.29,0.00,24.02,27.27,29.77,13.96,41.36,1030.64,2033.00,3429.01,3007.71,3451.00,600.04,602.20,17.28,0000 0000 0000 0000 000000
2017-09-13 08:45:34,0.01,0.29,0.00,24.01,27.27,29.78,13.99,41.34,1030.69,2033.00,3428.99,3007.21,3451.00,600.12,602.38,17.33,0000 0000 0000 0000 000000
2017-09-13 08:50:35,-0.00,0.29,0.00,23.99,27.27,29.78,13.99,41.29,1030.65,2033.00,3428.99,3007.29,3451.00,600.07,602.32,17.38,0000 0000 0000 0000 000000
2017-09-13 08:55:36,0.00,0.29,0.00,24.02,27.27,29.78,13.94,41.12,1030.70,2033.00,3428.99,3007.19,3451.00,600.04,602.14,17.43,0000 0000 0000 0000 000000
2017-09-13 09:00:38,0.00,0.29,0.00,24.02,27.27,29.78,13.98,41.22,1030.73,2033.00,3428.99,3007.23,3451.00,600.02,602.27,17.48,0000 0000 0000 0000 000000
2017-09-13 09:05:39,-0.00,0.29,0.00,24.01,27.27,29.78,13.95,41.26,1030.74,2033.00,3428.99,3007.21,3450.99,600.15,602.42,17.53,0000 0000 0000 0000 000000
2017-09-13 09:10:40,0.00,0.29,0.00,24.01,27.27,29.78,13.91,41.22,1030.75,2033.00,3428.98,3007.04,3450.97,599.96,602.14,17.58,0000 0000 0000 0000 000000
2017-09-13 09:15:42,0.00,0.29,0.00,24.01,27.27,29.78,13.97,41.35,1030.68,2033.00,3428.91,3007.01,3450.96,600.19,602.39,17.63,0000 0000 0000 0000 000000
2017-09-13 09:20:43,0.00,0.29,0.00,24.02,27.27,29.79,14.04,41.28,1030.53,2033.00,3428.83,3007.00,3450.94,600.24,602.38,17.68,0000 0000 0000 0000 000000
2017-09-13 09:25:44,0.00,0.29,0.00,24.03,27.27,29.79,13.90,41.17,1030.59,2033.00,3428.74,3007.01,3450.96,599.70,601.93,17.73,0000 0000 0000 0000 000000
2017-09-13 09:30:45,-0.00,0.29,0.00,24.04,27.27,29.79,13.95,41.24,1030.45,2032.99,3428.80,3007.03,3450.95,599.76,601.61,17.78,0000 0000 0000 0000 000000
2017-09-13 09:35:47,0.00,0.29,0.00,24.01,27.27,29.78,13.95,41.23,1030.49,2032.99,3428.89,3007.02,3450.97,600.16,602.23,17.83,0000 0000 0000 0000 000000
2017-09-13 09:40:48,0.00,0.29,0.00,24.01,27.27,29.79,13.95,41.22,1030.57,2032.99,3428.85,3007.01,3450.95,600.04,602.08,17.88,0000 0000 0000 0000 000000
2017-09-13 09:45:49,0.00,0.29,0.00,24.00,27.27,29.79,13.93,41.16,1030.56,2032.99,3428.97,3007.02,3450.97,599.68,601.70,17.93,0000 0000 0000 0000 000000
2017-09-13 09:50:50,0.00,0.29,0.00,23.98,27.27,29.78,13.97,41.28,1030.60,2032.99,3428.96,3007.03,3450.97,600.02,602.30,17.98,0000 0000 0000 0000 000000
2017-09-13 09:55:52,0.00,0.29,0.00,24.01,27.27,29.79,13.96,41.23,1030.66,2032.99,3428.95,3007.03,3450.95,600.01,602.25,18.03,0000 0000 0000 0000 000000
2017-09-13 10:00:53,0.00,0.29,0.00,24.03,27.27,29.79,13.95,41.30,1030.70,2032.99,3428.91,3007.01,3450.95,600.19,602.38,18.08,0000 0000 0000 0000 000000
2017-09-13 10:05:54,0.00,0.29,0.00,24.00,27.27,29.79,13.97,41.51,1030.68,2032.98,3428.72,3007.01,3450.91,600.01,602.29,18.13,0000 0000 0000 0000 000000
2017-09-13 10:10:54,0.00,0.29,0.00,24.02,27.27,29.80,13.87,41.50,1030.59,2032.98,3428.49,3007.01,3450.79,599.75,601.88,18.18,0000 0000 0000 0000 000000
2017-09-13 10:15:56,0.00,0.29,0.00,24.01,27.27,29.79,13.91,41.45,1030.58,2032.99,3428.55,3007.01,3450.83,599.72,601.82,18.23,0000 0000 0000 0000 000000
2017-09-13 10:20:57,-0.00,0.29,0.00,23.99,27.27,29.79,13.98,41.37,1030.60,2032.99,3428.84,3007.02,3450.96,600.11,602.36,18.28,0000 0000 0000 0000 000000
2017-09-13 10:25:59,0.00,0.29,0.00,23.99,27.27,29.80,13.93,41.41,1030.48,2032.99,3428.83,3007.01,3450.94,599.70,601.83,18.33,0000 0000 0000 0000 000000
2017-09-13 10:31:00,0.00,0.29,0.00,24.02,27.27,29.80,13.95,41.42,1030.45,2032.97,3428.72,3007.00,3450.86,599.98,602.03,18.38,0000 0000 0000 0000 000000
2017-09-13 10:36:01,-0.00,0.29,0.00,24.00,27.27,29.80,13.99,41.35,1030.43,2032.98,3428.84,3007.01,3450.90,600.05,602.16,18.43,0000 0000 0000 0000 000000
2017-09-13 10:41:03,0.01,0.29,0.00,24.00,27.27,29.79,14.00,41.33,1030.34,2032.98,3428.37,3007.00,3450.62,600.19,602.25,18.48,0000 0000 0000 0000 000000
2017-09-13 10:46:04,0.04,0.29,0.00,24.01,27.27,29.79,13.99,41.35,1030.34,2032.99,3427.23,3006.58,3450.01,600.01,601.94,18.53,0000 0000 0000 0000 000000
2017-09-13 10:51:05,0.01,0.29,0.00,23.97,27.27,29.79,13.97,41.45,1030.36,2032.99,3427.00,3006.18,3449.96,599.97,601.89,18.58,0000 0000 0000 0000 000000
2017-09-13 10:56:06,-0.01,0.29,0.00,23.99,27.27,29.78,13.97,41.27,1030.37,2032.99,3427.02,3006.59,3449.98,600.19,602.24,18.63,0000 0000 0000 0000 000000
2017-09-13 11:01:08,-0.00,0.29,0.00,24.00,27.27,29.79,13.93,41.26,1030.48,2032.99,3427.08,3006.82,3449.99,599.83,601.96,18.68,0000 0000 0000 0000 000000
2017-09-13 11:06:09,-0.00,0.29,0.00,23.97,27.27,29.79,14.08,41.32,1030.53,2032.99,3427.17,3006.88,3449.99,600.28,602.43,18.73,0000 0000 0000 0000 000000
2017-09-13 11:11:11,0.00,0.29,0.00,23.95,27.26,29.79,13.97,41.47,1030.55,2032.99,3427.33,3006.93,3449.99,600.18,602.45,18.78,0000 0000 0000 0000 000000
2017-09-13 11:16:12,0.00,0.29,0.00,23.95,27.25,29.79,13.94,41.37,1030.54,2032.99,3427.17,3006.89,3449.99,599.71,601.97,18.83,0000 0000 0000 0000 000000
2017-09-13 11:21:14,0.00,0.29,0.00,23.94,27.25,29.79,13.96,41.43,1030.46,2032.99,3427.16,3006.91,3449.99,600.00,602.52,18.88,0000 0000 0000 0000 000000
2017-09-13 11:26:15,-0.00,0.29,0.00,23.95,27.25,29.78,13.98,41.37,1030.42,2032.99,3427.34,3006.95,3449.99,600.23,602.46,18.93,0000 0000 0000 0000 000000
2017-09-13 11:31:16,-0.01,0.29,0.00,23.97,27.25,29.78,13.98,41.33,1030.44,2032.99,3427.48,3006.94,3449.99,600.16,602.27,18.98,0000 0000 0000 0000 000000
2017-09-13 11:36:18,0.00,0.29,0.00,23.97,27.25,29.78,13.94,41.42,1030.36,2032.99,3427.51,3006.96,3449.99,599.91,602.05,19.03,0000 0000 0000 0000 000000
2017-09-13 11:41:19,-0.00,0.29,0.00,23.98,27.25,29.79,13.88,41.47,1030.33,2032.99,3427.78,3006.97,3449.99,599.62,601.87,19.08,0000 0000 0000 0000 000000
2017-09-13 11:46:20,0.00,0.29,0.00,23.96,27.25,29.77,13.93,41.40,1030.31,2032.99,3427.72,3006.98,3449.99,599.80,601.75,19.13,0000 0000 0000 0000 000000
2017-09-13 11:51:22,-0.00,0.29,0.00,23.93,27.25,29.78,13.93,41.49,1030.31,2032.99,3427.75,3006.97,3449.99,599.79,601.96,19.18,0000 0000 0000 0000 000000
2017-09-13 11:56:23,0.00,0.29,0.00,23.93,27.25,29.77,13.94,41.39,1030.31,2032.99,3427.90,3006.98,3450.00,599.70,601.82,19.23,0000 0000 0000 0000 000000
2017-09-13 12:01:25,-0.00,0.29,0.00,23.94,27.25,29.77,13.94,41.33,1030.30,2032.99,3427.87,3006.98,3450.00,600.07,602.18,19.28,0000 0000 0000 0000 000000
2017-09-13 12:06:26,0.00,0.29,0.00,23.92,27.25,29.77,13.98,41.47,1030.29,2032.99,3427.94,3006.99,3450.01,600.29,602.32,19.33,0000 0000 0000 0000 000000
2017-09-13 12:11:27,0.00,0.29,0.00,23.91,27.24,29.77,13.93,41.45,1030.29,2032.99,3427.89,3006.98,3450.00,599.87,602.07,19.38,0000 0000 0000 0000 000000
2017-09-13 12:16:29,0.00,0.29,0.00,23.93,27.24,29.77,14.01,41.59,1030.29,2032.99,3427.81,3006.97,3450.00,600.32,602.54,19.43,0000 0000 0000 0000 000000
2017-09-13 12:21:30,0.00,0.29,0.00,23.95,27.24,29.76,14.01,41.50,1030.29,2032.99,3427.87,3006.97,3450.00,600.12,602.28,19.49,0000 0000 0000 0000 000000
2017-09-13 12:26:31,-0.00,0.29,0.00,23.91,27.24,29.77,14.02,41.68,1030.29,2032.99,3427.81,3006.98,3450.00,599.93,602.14,19.54,0000 0000 0000 0000 000000
2017-09-13 12:31:32,-0.00,0.29,0.00,23.93,27.23,29.76,13.97,41.51,1030.29,2032.99,3427.82,3006.98,3450.00,599.81,601.88,19.59,0000 0000 0000 0000 000000
2017-09-13 12:36:34,0.00,0.29,0.00,23.91,27.22,29.76,13.95,41.42,1030.29,2032.99,3427.84,3006.98,3450.00,600.02,602.12,19.64,0000 0000 0000 0000 000000
2017-09-13 12:41:35,-0.00,0.29,0.00,23.90,27.22,29.75,13.94,41.39,1030.24,2032.99,3427.87,3006.98,3450.00,599.67,601.94,19.69,0000 0000 0000 0000 000000
2017-09-13 12:46:36,0.01,0.29,0.00,23.92,27.22,29.76,13.99,41.58,1030.01,2032.99,3427.47,3006.95,3450.00,599.77,601.66,19.74,0000 0000 0000 0000 000000
2017-09-13 12:51:38,-0.00,0.29,0.00,23.93,27.22,29.77,14.00,41.63,1029.91,2032.99,3427.57,3006.97,3450.00,600.57,602.48,19.79,0000 0000 0000 0000 000000
2017-09-13 12:56:39,0.00,0.29,0.00,23.91,27.22,29.76,13.95,41.54,1029.92,2032.99,3427.61,3006.97,3450.00,599.63,601.56,19.84,0000 0000 0000 0000 000000